Regional Weather Roundup
Issued by NWS

Home | Current Version | Previous Version | Graphics & Text | Print | Product List | Glossary On
Versions: 1 2 3 4 5 6 7 8 9 10 11 12 13 14 15 16 17 18 19 20 21 22 23 24 25 26 27 28 29 30 31 32 33 34 35 36 37 38 39 40 41 42 43 44 45 46 47 48 49 50
000
ASUS43 KOAX 250402
RWRNE

WEATHER ROUNDUP FOR NEBRASKA
NATIONAL WEATHER SERVICE OMAHA NE
1000 PM CST WED DEC 24 2014

NOTES: SATELLITE DATA IS BEING USED TO AUGMENT CLOUD COVER ABOVE
       12000 FEET.
       "FAIR" INDICATES FEW OR NO CLOUDS BELOW 12,000 FEET WITH NO
       SIGNIFICANT WEATHER AND/OR OBSTRUCTIONS TO VISIBILITY.

  * THESE STATIONS DO NOT REPORT WEATHER SUCH AS RAIN...SNOW OR FOG.

NEZ001>004-019>022-054>056-250500-
NEBRASKA PANHANDLE

CITY           SKY/WX    TMP DP  RH WIND       PRES   REMARKS
SCOTTSBLUFF    CLOUDY    32  26  78 CALM      29.48F
ALLIANCE       CLOUDY    32  26  78 S5        29.46F WCI  27
CHADRON        CLOUDY    26  21  81 NW5       29.45F WCI  20
SIDNEY         CLOUDY    28  21  75 SW9       29.51F WCI  19
$$

NEZ057>060-069>072-079>082-250500-
SOUTHWEST NEBRASKA

CITY           SKY/WX    TMP DP  RH WIND       PRES   REMARKS
NORTH PLATTE   CLOUDY    34  24  67 SW5       29.55F WCI  30
IMPERIAL       MOCLDY    35  21  56 SW6       29.54F WCI  30
MCCOOK         MOCLDY    32  22  66 SW7       29.59F WCI  26
$$

NEZ005>010-023>029-035>040-094-250500-
NORTH CENTRAL NEBRASKA

CITY           SKY/WX    TMP DP  RH WIND       PRES   REMARKS
VALENTINE      CLOUDY    28  24  85 SW5       29.47F WCI  23
BROKEN BOW     CLOUDY    30  24  78 CALM      29.54F
ORD            PTCLDY    29  23  78 S6        29.55F WCI  23
$$

NEZ041-046>049-061>064-073>077-083>087-250500-
SOUTH CENTRAL NEBRASKA

CITY           SKY/WX    TMP DP  RH WIND       PRES   REMARKS
GRAND ISLAND   PTCLDY    33  22  63 S14       29.61F WCI  23
HASTINGS       PTCLDY    32  21  64 S8        29.61F WCI  25
KEARNEY *      PTCLDY    30  21  69 S9        29.60F WCI  22
$$

NEZ011>018-030>034-042>045-250500-
NORTHEAST NEBRASKA

CITY           SKY/WX    TMP DP  RH WIND       PRES   REMARKS
NORFOLK        PTCLDY    30  24  78 S14       29.58F WCI  19
COLUMBUS *     CLEAR     28  21  74 S6        29.64F WCI  22
TEKAMAH        CLEAR     30  27  88 SE8       29.69F WCI  22
$$

NEZ050>053-065>068-078-088>093-250500-
SOUTHEAST NEBRASKA

CITY           SKY/WX    TMP DP  RH WIND       PRES   REMARKS
LINCOLN        PTCLDY    26  24  92 SE7       29.69F WCI  18
OMAHA EPPLEY   CLEAR     29  27  92 S9        29.72F WCI  20
FALLS CITY     CLEAR     30  27  88 S8        29.75F WCI  22
$$

NEZ044-045-051>053-067-250500-
OMAHA AREA

CITY           SKY/WX    TMP DP  RH WIND       PRES   REMARKS
OMAHA EPPLEY   CLEAR     29  27  92 S9        29.72F WCI  20
OFFUTT AFB     CLEAR     29  27  91 S8        29.71F WCI  21
$$


USA.gov is the U.S. government's official web portal to all federal, state and local government web resources and services.